Location: Unspecified
(50.7693°N, 0.0000°E)
Time: 12:50:09
(UTC+00:00)

Vanguard 2 - Pass Details

Date: 24 June 2019
Orbit: 553 x 2938 km, 32.9° (Epoch: 17 August)

Event Time Altitude Azimuth Distance (km) Brightness Sun altitude
Rises 08:28:38 0° 220° (SW) 3,153 10.5 40.8°
Reaches altitude 10° 08:31:45 10° 197° (SSW) 2,505 10.3 41.3°
Maximum altitude 08:35:09 16° 161° (SSE) 2,454 10.7 41.8°
Drops below altitude 10° 08:39:24 10° 128° (SE) 3,286 11.7 42.5°
Sets 08:44:33 0° 110° (ESE) 4,806 12.4 43.2°
